Home   Weather   Cleveland   Past weeks
Flag for USA

Past Weather in Cleveland, Ohio, USA — Yesterday and Last 2 Weeks

Now
66 °F

Light rain. Fog.


Feels Like: 66 °F
Forecast: 75 / 69 °F
Wind: 13 mph from Northeast

Location: Cleveland-Hopkins International Airport

Current Time: Jul 22, 2019 at 10:19:50 am

Latest Report: Jul 22, 2019 at 9:24 am


Visibility: 6 mi

Pressure: 29.94 "Hg

Humidity: 90%

Dew Point: 63 °F

Location of ClevelandLocation

Past Weather in Cleveland — Graph

°F

Cleveland Temperature Yesterday

Maximum temperature yesterday: 87 °F (at 12:51 pm)
Minimum temperature yesterday: 71 °F (at 11:51 pm)
Average temperature yesterday: 79 °F

High & Low Weather Summary for the Past Weeks

 TemperatureHumidityPressure
High95 °F (Jul 20, 3:51 pm)94% (Jul 16, 9:51 pm)30.15 "Hg (Jul 16, 9:51 pm)
Low59 °F (Jul 9, 1:51 am)25% (Jul 14, 5:51 pm)29.79 "Hg (Jul 11, 5:51 pm)
Average78 °F67%29.96 "Hg
* Reported Jul 7 8:51 am — Jul 22 8:59 am, Cleveland. Weather by CustomWeather, © 2019

Note: Actual official high and low records may vary slightly from our data, if they occured in-between our weather recording intervals... More about our weather records

Advertising

Cleveland Weather History for the Previous 24 Hours

Scroll right to see more
 ConditionsComfort  
Time TempWeatherWind HumidityBarometerVisibility
8:59 am
Mon, Jul 22
66 °FRain. Fog.10 mph90%29.94 "Hg2 mi
8:33 am66 °FHeavy rain. Fog.17 mph93%29.93 "Hg2 mi
8:11 am67 °FRain. Fog.12 mph90%29.92 "Hg2 mi
7:44 am68 °FLight rain. Fog.14 mph90%29.91 "Hg5 mi
6:51 am70 °FLight rain. Overcast.15 mph79%29.89 "Hg8 mi
5:51 am72 °FOvercast.7 mph76%29.88 "Hg10 mi
5:34 am72 °FOvercast.6 mph76%29.90 "Hg10 mi
5:05 am72 °FOvercast.7 mph76%29.89 "Hg10 mi
4:51 am72 °FOvercast.6 mph73%29.87 "Hg10 mi
4:27 am72 °FOvercast.8 mph68%29.90 "Hg10 mi
3:51 am72 °FOvercast.8 mph64%29.89 "Hg10 mi
2:51 am71 °FOvercast.8 mph68%29.89 "Hg10 mi
1:58 am70 °FLight rain. Overcast.8 mph71%29.93 "Hg10 mi
12:51 am70 °FLight rain. Overcast.9 mph84%29.93 "Hg10 mi
11:51 pm
Sun, Jul 21
71 °FLight rain. Overcast.No wind84%29.94 "Hg10 mi
10:51 pm73 °FPassing clouds.9 mph71%29.93 "Hg10 mi
9:51 pm74 °FPartly cloudy.6 mph82%29.92 "Hg10 mi
8:51 pm76 °FThunderstorms. Cloudy.7 mph74%29.94 "Hg6 mi
7:51 pm79 °FCloudy.9 mph62%29.93 "Hg10 mi
6:51 pm79 °FPartly sunny.17 mph67%29.93 "Hg10 mi
5:51 pm80 °FScattered clouds.17 mph69%29.91 "Hg10 mi
4:51 pm82 °FScattered clouds.16 mph67%29.90 "Hg10 mi
3:51 pm81 °FBroken clouds.16 mph74%29.93 "Hg10 mi
2:51 pm85 °FBroken clouds.12 mph68%29.92 "Hg10 mi
1:51 pm85 °FBroken clouds.8 mph68%29.92 "Hg10 mi
12:51 pm87 °FBroken clouds.7 mph61%29.93 "Hg10 mi
11:51 am85 °FBroken clouds.7 mph65%29.95 "Hg10 mi
10:51 am83 °FPassing clouds.No wind65%29.95 "Hg10 mi
Weather by CustomWeather, © 2019

See weather overview